Home > Weather > Mombasa > Past weeks

Flag for Kenya Past Weather in Mombasa, Kenya — Yesterday and Last 2 Weeks

Now
82 °F

Scattered clouds.


Feels Like: 86 °F
Forecast: 72 / 82 °F
Wind: 12 mph from Southwest

Location: Mombasa Airport

Current Time: Jun 28, 2016 at 12:49:08 PM

Latest Report: Jun 28, 2016 at 12:00 PM


Visibility: N/A

Pressure: 30.07 "Hg

Humidity: 66%

Dew Point: 70 °F

Location of MombasaLocation

Past Weather in Mombasa — Graph

°F

Mombasa Temperature Yesterday

Maximum temperature yesterday: 82 °F (at 12:00 PM)
Minimum temperature yesterday: 70 °F (at 7:00 AM)
Average temperature yesterday: 76 °F

High & Low Weather Summary for the Past Weeks

 TemperatureHumidityPressure
High88 °F (Jun 14, 1:00 PM)100% (Jun 19, 2:00 AM)30.15 "Hg (Jun 19, 2:00 AM)
Low68 °F (Jun 14, 3:00 AM)40% (Jun 14, 2:00 PM)29.95 "Hg (Jun 16, 4:00 PM)
Average77 °F81%30.05 "Hg
* Reported Jun 13 12:00 PM — Jun 28 11:00 AM, Mombasa, Weather by CustomWeather, © 2016

Note: Actual official high and low records may vary slightly from our data, if they occured in-between our weather recording intervals... More about our weather records

Advertising

Mombasa Weather History for the Previous 24 Hours

Scroll right to see more
 ConditionsComfort  
Time TempWeatherWind HumidityBarometerVisibility
11:00 AM
Tue, Jun 28
81 °FPartly sunny.8 mph70%30.09 "HgN/A
10:00 AM81 °FPartly sunny.12 mph74%30.09 "HgN/A
9:00 AM77 °FPassing clouds.9 mph89%30.09 "HgN/A
8:00 AM73 °FPassing clouds.7 mph94%30.09 "HgN/A
7:00 AM70 °FPassing clouds.6 mph94%30.07 "HgN/A
6:00 AM70 °FPassing clouds.5 mph94%30.07 "HgN/A
5:00 AM70 °FPassing clouds.3 mph100%30.04 "HgN/A
4:00 AM72 °FPassing clouds.5 mph94%30.01 "HgN/A
2:00 AM73 °FPassing clouds.8 mph89%30.04 "HgN/A
12:00 AM73 °FPassing clouds.No wind89%30.07 "HgN/A
11:00 PM
Mon, Jun 27
73 °FPassing clouds.7 mph89%30.07 "HgN/A
10:00 PM75 °FPassing clouds.7 mph83%30.07 "HgN/A
9:00 PM77 °FPassing clouds.7 mph79%30.07 "HgN/A
8:00 PM77 °FPassing clouds.3 mph79%30.04 "HgN/A
7:00 PM79 °FPassing clouds.5 mph70%30.04 "HgN/A
6:00 PM79 °FPassing clouds.7 mph74%30.04 "HgN/A
5:00 PM81 °FScattered clouds.8 mph74%30.04 "HgN/A
4:00 PM81 °FScattered clouds.10 mph70%30.04 "HgN/A
3:00 PM81 °FPartly sunny.10 mph74%30.04 "HgN/A
2:00 PM81 °FPartly sunny.14 mph70%30.07 "HgN/A
1:00 PM82 °FPartly sunny.8 mph66%30.07 "HgN/A
12:00 PM82 °FScattered clouds.8 mph62%30.09 "HgN/A
Weather by CustomWeather, © 2016

See weather overviewHow to use our weather pages